Church Fenton, United Kingdom

2:12 PM GMT on February 22, 2017 (GMT +0000)
Church Fenton

Weather History for 03355 - July, 2013

Change the Weather History Date:

Thursday, July 18, 2013

  Actual Average Record
Temperature  
Mean Temperature 70 °F -  
Max Temperature 83 °F 64 °F - ()
Min Temperature 57 °F 51 °F - ()
Cooling Degree Days 5    
Growing Degree Days 20 (Base 50)    
Moisture  
Dew Point 56 °F    
Average Humidity 62    
Maximum Humidity 94    
Minimum Humidity 27    
Precipitation  
Precipitation 0.00 in - - ()
Sea Level Pressure  
Sea Level Pressure 30.33 in    
Wind  
Wind Speed 3 mph ()    
Max Wind Speed 9 mph    
Max Gust Speed -    
Visibility 8.2 miles    
Events      
T = Trace of Precipitation, MM = Missing Value Source: Averaged Metar Reports

Daily Weather History Graph

Daily Weather History Graph

Search for Another Location

Airport or City:

Trip Planner

Search our weather history database for the weather conditions in past years. The results will help you decide how hot, cold, wet, or windy it might be!

Date:

Astronomy

Jul. 18, 2013 Rise Set
Actual Time 4:57 AM BST 9:24 PM BST
Civil Twilight 4:08 AM BST 10:12 PM BST
Nautical Twilight 2:52 AM BST 11:26 PM BST
Astronomical Twilight 1:43 AM BST 12:38 AM BST
Moon 4:57 PM BST (7/18) 12:48 AM BST (7/18)
Length of Visible Light 18h 03m
Length of Day
16h 26m
Waxing Gibbous, 75% of the Moon is Illuminated
Jul 18
Waxing Gibbous
Jul 22
Full
Jul 29
Last Quarter
Aug 6
New
Aug 14
First Quarter

Hourly Weather History & Observations

Time (BST) Temp. Heat Index Dew Point Humidity Pressure Visibility Wind Dir Wind Speed Gust Speed Precip Events Conditions
12:50 AM 59 °F - 55 °F 81% 30.35 in 14 mi NE 1.2 mph - -  
12:50 AM 59.0 °F - 55.4 °F 88% 30.33 in 6.2 mi NE 1.2 mph - N/A   Unknown
1:50 AM 59.0 °F - 55.4 °F 88% 30.33 in 6.2 mi SW 2.3 mph - N/A   Mostly Cloudy
2:50 AM 57.2 °F - 53.6 °F 88% 30.33 in 6.2 mi NNW 2.3 mph - N/A   Mostly Cloudy
3:50 AM 58 °F - 55 °F 86% 30.35 in 12 mi NNW 2.3 mph - -   Mostly Cloudy
3:50 AM 59.0 °F - 55.4 °F 88% 30.33 in 6.2 mi NNW 2.3 mph - N/A   Mostly Cloudy
4:50 AM 57.2 °F - 55.4 °F 94% 30.33 in 6.2 mi NW 2.3 mph - N/A   Mostly Cloudy
5:50 AM 57.2 °F - 55.4 °F 94% 30.33 in 6.2 mi NW 2.3 mph - N/A   Scattered Clouds
6:50 AM 59 °F - 56 °F 87% 30.36 in 9 mi NNW 4.6 mph - -  
6:50 AM 59.0 °F - 55.4 °F 88% 30.36 in 6.2 mi NNW 4.6 mph - N/A   Partly Cloudy
7:50 AM 64.4 °F - 57.2 °F 77% 30.36 in 6.2 mi NNW 5.8 mph - N/A   Mostly Cloudy
8:50 AM 68.0 °F - 57.2 °F 68% 30.36 in 6.2 mi NNW 3.5 mph - N/A   Scattered Clouds
9:50 AM 72 °F - 57 °F 49% 30.36 in 19 mi NNW 3.5 mph - -   Scattered Clouds
9:50 AM 73.4 °F - 57.2 °F 57% 30.36 in 6.2 mi NNW 3.5 mph - N/A   Partly Cloudy
10:50 AM 75.2 °F - 53.6 °F 47% 30.36 in 6.2 mi NE 2.3 mph - N/A   Partly Cloudy
11:50 AM 77.0 °F - 55.4 °F 47% 30.33 in 6.2 mi NNE 3.5 mph - N/A   Scattered Clouds
12:50 PM 79 °F - 55 °F 33% 30.35 in 22 mi NNW 4.6 mph - -   Scattered Clouds
12:50 PM 78.8 °F - 55.4 °F 44% 30.33 in 6.2 mi NNW 4.6 mph - N/A   Partly Cloudy
1:50 PM 80.6 °F 80.5 °F 55.4 °F 42% 30.33 in - NNE 4.6 mph - N/A   Clear
2:50 PM 82.4 °F 81.7 °F 55.4 °F 39% 30.33 in - East 3.5 mph - N/A   Clear
3:50 PM 83 °F - 54 °F 27% 30.33 in 22 mi West 4.6 mph - -   Scattered Clouds
3:50 PM 82.4 °F 81.4 °F 53.6 °F 37% 30.30 in - West 4.6 mph - N/A   Clear
4:50 PM 80.6 °F 80.3 °F 53.6 °F 39% 30.30 in - ENE 5.8 mph - N/A   Clear
5:50 PM 82.4 °F 81.4 °F 53.6 °F 37% 30.30 in 6.2 mi East 3.5 mph - N/A   Partly Cloudy
6:50 PM 80 °F - 58 °F 36% 30.31 in 19 mi East 9.2 mph - -  
6:50 PM 80.6 °F 80.8 °F 57.2 °F 45% 30.30 in 6.2 mi East 9.2 mph - N/A   Unknown
7:50 PM 77.0 °F - 57.2 °F 50% 30.30 in 6.2 mi East 9.2 mph - N/A   Unknown
8:50 PM 71.6 °F - 57.2 °F 60% 30.33 in 6.2 mi East 5.8 mph - N/A   Unknown
9:50 PM 68 °F - 57 °F 59% 30.34 in 16 mi ESE 6.9 mph - -   Scattered Clouds
9:50 PM 68.0 °F - 57.2 °F 68% 30.33 in 6.2 mi ESE 6.9 mph - N/A   Partly Cloudy
10:50 PM 68.0 °F - 57.2 °F 68% 30.33 in 6.2 mi SE 4.6 mph - N/A   Unknown
11:50 PM 64.4 °F - 55.4 °F 73% 30.33 in 6.2 mi East 1.2 mph - N/A   Unknown